Flight Track Log - Related Links

Times and Time Zones

All times are in EDT time to prevent confusion due to time zone crossing. See the EJA312 flight status page for this flight to view local times or setup timezone preferences in your user account.

Time Position Orientation Groundspeed Altitude Reporting Facility
EDT Latitude Longitude Course Direction KTS MPH feet Rate Location/Type
04:04PM 29.6356 -95.2675 126° Southeast 166 191 800  Level Houston Center
04:05PM 29.6158 -95.2361 126° Southeast 226 260 2,800 2,667 Climbing Houston Center
04:06PM 29.6350 -95.1989 59° Northeast 266 306 4,400 2,164 Climbing Houston Center
04:06PM 29.6689 -95.1983 North 291 335 5,000 581 Climbing Houston Center
04:07PM 29.7158 -95.2200 338° Northwest 285 328 5,000 97 Level Houston Center
04:07PM 29.7439 -95.2350 335° Northwest 288 331 5,100 2,260 Climbing Houston Center
04:08PM 29.8167 -95.2719 336° Northwest 286 329 7,900 2,556 Climbing Houston Center
04:09PM 29.8608 -95.2964 334° Northwest 287 330 9,700 3,061 Climbing Houston Center
04:09PM 29.8808 -95.3075 334° Northwest 300 345 10,400 3,484 Climbing Houston Center
04:10PM 29.9614 -95.3264 349° North 307 353 13,300 2,607 Climbing Houston Center
04:11PM 30.0461 -95.3486 347° North 310 357 15,700 2,129 Climbing Houston Center
04:12PM 30.1356 -95.3728 347° North 326 375 17,700 1,742 Climbing Houston Center
04:13PM 30.2286 -95.3958 348° North 340 391 19,300 1,645 Climbing Houston Center
04:14PM 30.3239 -95.4214 347° North 348 400 21,100 1,306 Climbing Houston Center
04:15PM 30.4200 -95.4461 347° North 352 405 22,000 435 Climbing Houston Center
04:16PM 30.5467 -95.4781 348° North 387 445 22,000  Level Houston Center
04:17PM 30.6603 -95.5033 349° North 410 472 22,000  Level Houston Center
04:18PM 30.7686 -95.5264 350° North 415 478 22,000  Level Houston Center
04:19PM 30.8858 -95.5533 349° North 423 487 22,000  Level Houston Center
04:20PM 31.0250 -95.5850 349° North 422 486 22,000  Level Houston Center
04:21PM 31.1367 -95.6106 349° North 411 473 22,000  Level Houston Center
04:22PM 31.2403 -95.6361 348° North 386 444 22,000  Level Houston Center
04:23PM 31.3297 -95.6919 332° Northwest 367 422 22,000  Level Houston Center
04:24PM 31.4200 -95.7469 333° Northwest 364 419 22,000  Level Houston Center
04:25PM 31.5106 -95.8014 333° Northwest 365 420 22,000  Level Houston Center
04:26PM 31.6017 -95.8567 333° Northwest 366 421 22,000 -885 Level Houston Center
04:27PM 31.7097 -95.9286 330° Northwest 374 430 20,200 -1,800 Descending Fort Worth Center
04:28PM 31.8003 -95.9786 335° Northwest 393 452 18,400 -1,950 Descending Fort Worth Center
04:29PM 31.8947 -96.0383 332° Northwest 398 458 16,300 -2,050 Descending Fort Worth Center
04:30PM 31.9831 -96.0956 331° Northwest 379 436 14,300 -1,900 Descending Fort Worth Center
04:31PM 32.0672 -96.1483 332° Northwest 354 407 12,500 -1,800 Descending Fort Worth Center
04:32PM 32.1511 -96.1964 334° Northwest 341 392 10,700 -1,500 Descending Fort Worth Center
04:33PM 32.2350 -96.2517 331° Northwest 323 372 9,500 -850 Descending Fort Worth Center
04:34PM 32.3086 -96.2950 334° Northwest 306 352 9,000 -250 Descending Fort Worth Center
04:35PM 32.3842 -96.3408 333° Northwest 301 346 9,000  Level Fort Worth Center
04:36PM 32.4617 -96.3867 333° Northwest 301 346 9,000 -250 Level Fort Worth Center
04:37PM 32.5353 -96.4303 333° Northwest 306 352 8,500 -900 Descending Fort Worth Center
04:38PM 32.6086 -96.4736 334° Northwest 299 344 7,200 -1,100 Descending Fort Worth Center
04:39PM 32.6819 -96.5225 331° Northwest 304 350 6,300 -900 Descending Fort Worth Center
04:40PM 32.7408 -96.5736 324° Northwest 293 337 5,400 -900 Descending Fort Worth Center
04:41PM 32.8142 -96.6322 326° Northwest 286 329 4,500 -923 Descending Fort Worth Center
04:42PM 32.8500 -96.6500 337° Northwest 288 331 4,000 -1,000 Descending Dallas / Fort Worth TRACON
04:43PM 32.9000 -96.7167 312° West 278 320 3,000 -526 Descending Dallas / Fort Worth TRACON
04:44PM 32.9500 -96.7833 312° West 269 310 3,000  Level Dallas / Fort Worth TRACON
04:45PM 32.9833 -96.8500 301° West 186 214 3,000  Level Dallas / Fort Worth TRACON
04:46PM 33.0000 -96.9000 292° West 176 203 3,000 -99 Level Dallas / Fort Worth TRACON
04:47PM 32.9667 -96.9333 220° Southwest 162 186 2,800 -480 Descending Dallas / Fort Worth TRACON
04:48PM 32.9333 -96.9333 180° South 146 168 2,000 -550 Descending Dallas / Fort Worth TRACON
04:49PM 32.9000 -96.9000 140° Southeast 123 142 1,700 -446 Descending Dallas / Fort Worth TRACON
04:50PM 32.8833 -96.8833 140° Southeast 102 117 1,100 -600 Descending Dallas / Fort Worth TRACON
04:52PM 32.8471 -96.8518 180° South  Level Estimated

Login

Don't have an account? Register now (free) for customized features, flight alerts, and more!